Weather History for Crestview, FL

Change the Weather History Date:

Monday, November 19, 2012

  Actual Average Record
Temperature  
Mean Temperature 56 °F -  
Max Temperature 72 °F 70 °F 81 °F (1981)
Min Temperature 39 °F 47 °F 17 °F (2014)
Degree Days  
Heating Degree Days 10    
Growing Degree Days 6 (Base 50)    
Moisture  
Dew Point 43 °F    
Average Humidity 75    
Maximum Humidity 93    
Minimum Humidity 39    
Precipitation  
Precipitation 0.00 in - - ()
Sea Level Pressure  
Sea Level Pressure 30.23 in    
Wind  
Wind Speed 1 mph (North)    
Max Wind Speed 10 mph    
Max Gust Speed -    
Visibility 10 miles    
Events      
Averages and records for this station are not official NWS values.
T = Trace of Precipitation, MM = Missing Value Source: NWS Daily Summary

Daily Weather History Graph

Daily Weather History Graph

Search for Another Location

Airport:

Trip Planner

Search our weather history database for the weather conditions in past years. The results will help you decide how hot, cold, wet, or windy it might be!

Date:

Astronomy

Nov. 19, 2012 Rise Set
Actual Time 6:16 AM CST 4:46 PM CST
Civil Twilight 5:50 AM CST 5:12 PM CST
Nautical Twilight 5:21 AM CST 5:41 PM CST
Astronomical Twilight 4:52 AM CST 6:10 PM CST
Moon 11:27 AM CST (11/19) 11:02 PM CST (11/19)
Length of Visible Light 11h 21m
Length of Day
10h 30m
Waxing Crescent, 41% of the Moon is Illuminated
Nov 19
Waxing Crescent
Nov 20
First Quarter
Nov 28
Full
Dec 6
Last Quarter
Dec 13
New

Hourly Weather History & Observations

Time (CST) Temp. Windchill Dew Point Humidity Pressure Visibility Wind Dir Wind Speed Gust Speed Precip Events Conditions
12:53 AM 44.1 °F - 41.0 °F 89% 30.28 in 10.0 mi Calm Calm - N/A   Clear
1:53 AM 46.0 °F - 41.0 °F 83% 30.28 in 10.0 mi Calm Calm - N/A   Clear
2:53 AM 42.1 °F - 39.9 °F 92% 30.27 in 10.0 mi Calm Calm - N/A   Clear
3:53 AM 41.0 °F - 39.0 °F 93% 30.27 in 9.0 mi Calm Calm - N/A   Clear
4:53 AM 39.9 °F - 37.9 °F 93% 30.27 in 10.0 mi Calm Calm - N/A   Clear
5:53 AM 39.0 °F - 37.0 °F 93% 30.27 in 8.0 mi Calm Calm - N/A   Clear
6:53 AM 41.0 °F - 39.0 °F 93% 30.28 in 10.0 mi Calm Calm - N/A   Clear
7:53 AM 50.0 °F - 45.0 °F 83% 30.29 in 10.0 mi Calm Calm - N/A   Clear
8:53 AM 57.0 °F - 46.9 °F 69% 30.28 in 10.0 mi East 5.8 mph - N/A   Clear
9:53 AM 63.0 °F - 48.9 °F 60% 30.28 in 10.0 mi Calm Calm - N/A   Clear
10:53 AM 66.9 °F - 50.0 °F 54% 30.27 in 10.0 mi Variable 3.5 mph - N/A   Clear
11:53 AM 70.0 °F - 48.9 °F 47% 30.24 in 10.0 mi NE 4.6 mph - N/A   Clear
12:53 PM 72.0 °F - 48.0 °F 43% 30.21 in 10.0 mi Variable 4.6 mph - N/A   Clear
1:53 PM 72.0 °F - 48.0 °F 43% 30.20 in 10.0 mi Variable 6.9 mph - N/A   Clear
2:53 PM 71.1 °F - 45.0 °F 39% 30.19 in 10.0 mi NNW 10.4 mph - N/A   Clear
3:53 PM 69.1 °F - 44.1 °F 40% 30.19 in 10.0 mi NNW 6.9 mph - N/A   Clear
4:53 PM 63.0 °F - 46.0 °F 54% 30.18 in 10.0 mi NNW 3.5 mph - N/A   Clear
5:53 PM 53.1 °F - 46.9 °F 80% 30.19 in 10.0 mi Calm Calm - N/A   Clear
6:53 PM 48.9 °F - 46.0 °F 90% 30.20 in 10.0 mi Calm Calm - N/A   Clear
7:53 PM 46.0 °F - 43.0 °F 89% 30.21 in 10.0 mi Calm Calm - N/A   Clear
8:53 PM 44.1 °F 42.5 °F 42.1 °F 93% 30.21 in 10.0 mi North 3.5 mph - N/A   Clear
9:53 PM 43.0 °F - 41.0 °F 93% 30.20 in 10.0 mi Calm Calm - N/A   Clear
10:53 PM 42.1 °F - 39.9 °F 92% 30.19 in 10.0 mi Calm Calm - N/A   Clear
11:53 PM 42.1 °F - 39.0 °F 89% 30.18 in 10.0 mi Calm Calm - N/A   Clear